sat.trackr.live / text

‹ back to catalog

STARLINK-36892

NORAD 67944 · 2026-037N

PAYLOAD ACTIVE UNKNOWN

§ Identity

Operator
Country
US
Launch date
2026-02-24
Launch site
AFETR
Launch vehicle
Mass (kg)
RCS (m²)

Purposes: comms

External: N2YO · Heavens-Above · Gunter

§ Orbital elements

Epoch: 2026-05-25T04:47:14.169120Z

Period
94.27 min
Inclination
42.9995°
Eccentricity
0.0000925
Mean motion
15.27595284 rev/d
Perigee alt
482.4 km
Apogee alt
483.6 km
Semi-major
6,861.1 km
B*
5.5360e-4
RAAN
118.4771°
Arg perigee
266.2459°
Mean anomaly
93.8287°
Rev number
1,504

§ Raw data

STARLINK-368921 67944U 26037N   26145.19946955  .00015010  00000+0  55360-3 0  99922 67944  42.9995 118.4771 0000925 266.2459  93.8287 15.27595284 15044

JSON: /api/v1/satellites/67944 · /tle

For live sub-satellite position, see the globe view (requires WebGL).

§ Visibility from observer

Set your observer location to see the next 7 days of passes ≥ 10°. The values pass through the URL so the page stays shareable.

No JS? Fill the form by hand. The geolocation button needs JavaScript.